User: anonymous   Login
Location: Unspecified
(0.0000°N, 0.0000°E)
Time: 09:00:53
(UTC+00:00)
Language:

TBA - TO BE ASSIGNED - Orbit

View from above orbital plane
View from above orbital plane
View from above satellite
View from above satellite

Ground track
Ground track

The orbit is defined by the following mean orbital elements,

1 68180U          26144.70568962 +.00000000 +00000-0 +10915-2 0 00004
2 68180  53.1586 273.5166 0001187  57.6662 302.4457 15.38860087    03
Epoch (UTC): 24 May 2026 16:56:11
Eccentricity: 0.0001187
inclination: 53.1586°
perigee height: 449 km
apogee height: 450 km
right ascension of ascending node: 273.5166°
argument of perigee: 57.6662°
revolutions per day: 15.38860087
mean anomaly at epoch: 302.4457°

The dashed part of the orbit path shows where the satellite is in the earth's shadow,  

DLR